STARLINK-32638, 62424

Orbit data source: Space-Track

STARLINK-32638, 62424 is a payload satellite owned by SpaceX/Seattle (US) in LEO that was launched on Mon, 23 Dec 2024 UTC via an FALCON 9 launch vehicle from the Air Force Eastern Test Range (AFETR). Payload-class satellites include a variety of spacecraft equipped with specific instruments for various scientific and technological missions. These include communications satellites like Starlink; space stations such as the ISS; scientific satellites like the Hubble; Earth observation satellites from companies like Planet Labs, Umbra, and HawkEye 360; GPS; miniature CubeSats for education and research; and military/defense satellites.

Loading next visibility...
Identifier
62424, 2024-249R
Orbit
LEO
Country
Flag of USUS
Related business
Manufacturer
SpaceX/Seattle
Mission
Operational Commercial Communications
Bus & Motor
STARLINK V2M, Unknown motor
Mass
730 kg wet, ~700 kg dry
Launch date (UTC)
2024-12-23 (1 year ago)
Launch vehicle
FALCON 9
Launch site
Air Force Eastern Test Range (AFETR)
Object type
Payload
Rocket body
Debris
Shape & HBR
Box + 2 Pan, 17.7 m
Radar Cross Section
33.884 m², Large (>1 m²)

Expand to show TLE details & history
Last TLE update: 1 day ago

TLE from 1 day ago
0 STARLINK-32638
1 62424U 24249R   26170.52454732  .00017535  00000-0  64490-3 0  9994
2 62424  42.9980 110.5898 0001684  59.4181 300.6837 15.27596353 83252
Epoch: 2026-06-19T12:35Z
TLE epoch observation values (Epoch: 2026-06-19T12:35:20.888Z)
Latitude
0.00001°
Longitude
14.00049°
Altitude
482.186 km
Speed
7.627 km/s
True Right ascension
07h 22m 21s
True Declination
0° 00' 00"
Sunlit
Object was in daylight at epoch
Visualization orbit readout
Latitude
Unknown
Longitude
Unknown
Altitude
Unknown
Speed
Unknown
Apparent Right ascension
Unknown
Apparent Declination
Unknown
Sunlit
N/A
Visualization observer readout
Local Sidereal Time
07:18:20
Azimuth
Unknown
Elevation
Unknown
Doppler factor
Unknown
Orbital elements
Apogee altitude
486.101 km
Perigee altitude
483.79 km
Semi-major axis
6,863.083 km
Eccentricity
0.00017
Inclination
42.998°
RAAN
110.5898°
Arg. of periapsis
59.4181°
True anomaly
300.6671°
Mean anomaly
300.6837°
Eccentric anomaly
300.6754°
Mean motion
3.81737 °/min
Orbital period
94.31 mins
BSTAR
0.0006449
Loading maneuver chart data...
Computing Atmospheric mass density...
Loading historical data...
Loading historical data...
Loading historical data...
Loading historical data...
Loading historical data...
Loading historical data...
Loading historical data...

Documentation

Showing up to 5 results
|